Vorticity
17 15 3 6 27 21 11 12 14 5 -2 18 32 29 18 5 4 4 6 5 3 3 4 4 6 5 5 7 8 8 7 6 2 2 2 2 3 3 1 -0 1 2 2 4 4
7 17 27 25 17 8 12 11 -0 16 21 43 25 26 17 4 7 6 6 8 3 3 5 4 6 5 5 7 7 7 6 5 4 1 3 2 3 3 2 2 3 4 3 3 3
-3 16 17 21 22 22 22 11 15 18 -12 26 31 17 15 4 9 8 7 8 4 4 5 5 5 5 6 7 7 5 5 4 4 3 2 2 3 2 3 3 4 4 4 3 3
10 6 22 16 29 13 20 5 -15 31 64 12 21 22 11 3 13 8 8 7 4 4 5 6 6 4 6 7 7 7 5 4 4 4 3 2 1 2 4 5 4 3 3 3 4
8 9 14 34 -43 53 28 -62 41 43 23 18 12 18 10 5 13 6 8 8 5 5 5 6 5 4 6 6 6 6 5 5 4 4 4 4 4 4 4 3 3 3 4 5 4
28 13 5 22 -12 6 33 33 45 17 16 15 15 18 11 6 10 6 7 7 5 6 6 6 5 4 5 5 5 5 4 4 4 3 3 3 4 4 4 4 4 3 1 1 6
23 15 9 9 11 -0 -2 26 20 8 15 8 12 13 10 10 9 6 8 7 6 6 5 4 4 4 5 5 5 4 3 3 4 4 3 3 6 5 5 5 5 4 4 -2 7
6 7 20 34 -24 17 3 17 24 11 16 11 13 12 10 9 8 7 8 8 7 6 6 6 4 4 5 5 6 4 5 5 5 5 5 3 7 5 4 3 2 3 2 7 5
6 2 12 9 34 24 9 19 5 20 8 13 12 11 12 10 7 6 7 7 7 6 6 5 4 4 5 5 5 5 5 4 4 4 4 3 3 2 2 1 2 15 15 14 13
17 19 16 19 6 16 22 14 12 14 13 12 11 9 9 10 6 7 8 7 8 7 6 5 5 5 6 5 5 5 5 5 5 6 6 6 7 5 7 10 11 6 5 6 7
4 11 9 10 11 16 19 15 15 12 15 11 9 11 10 8 7 8 9 8 6 6 7 7 5 5 6 5 6 6 6 6 6 3 1 4 11 9 14 12 6 6 4 6 8
22 19 15 9 12 10 9 13 14 14 11 10 7 12 11 7 7 7 8 6 7 8 8 7 7 6 6 6 6 5 5 4 4 1 4 8 3 1 3 6 8 7 10 11 15
7 18 25 19 14 10 14 11 12 10 10 8 9 5 8 5 7 8 9 8 7 6 5 5 4 4 5 5 5 5 5 4 3 7 9 8 1 2 6 8 7 11 17 20 12
5 4 1 11 8 8 11 12 10 12 12 9 8 5 7 5 3 7 6 6 5 5 6 4 5 5 4 4 5 3 4 8 10 8 6 6 5 3 8 13 14 17 16 9 7
6 6 6 4 3 15 11 11 11 13 8 11 2 3 2 7 4 1 3 2 4 3 4 3 5 6 5 3 5 9 9 8 5 4 5 7 10 10 14 18 17 11 5 6 7
9 6 9 6 6 6 6 6 8 12 16 14 9 9 4 2 6 4 3 4 5 4 3 5 6 6 8 10 9 7 5 4 5 4 6 9 12 17 17 10 9 10 5 6 15
12 8 7 5 7 6 7 5 3 13 15 10 10 7 6 6 8 6 5 5 4 7 8 8 9 9 7 6 4 3 2 3 5 9 14 17 13 16 11 8 10 17 14 9 14
12 25 9 9 4 6 7 3 9 9 9 12 11 16 10 7 12 8 10 10 9 10 7 6 6 3 3 3 2 3 8 11 11 13 13 10 10 8 10 7 8 22 17 11 9
8 11 18 15 8 2 7 9 11 3 8 4 6 6 8 7 8 6 6 6 5 5 4 4 4 5 5 8 11 12 9 10 14 11 9 9 12 4 9 10 10 9 18 11 8
7 10 9 13 20 16 6 2 3 10 9 10 3 6 5 4 4 3 2 2 2 3 4 8 9 9 9 10 8 11 16 10 8 7 11 15 5 8 7 4 7 6 5 3 3
9 7 6 8 12 12 18 16 14 11 3 5 7 6 6 6 6 6 9 7 9 9 11 12 12 13 17 17 14 8 7 9 9 9 9 5 7 7 5 9 6 5 2 0 4
13 8 4 7 7 7 12 13 10 13 20 14 13 8 8 9 9 11 10 11 10 11 11 16 17 5 4 11 12 8 6 7 6 4 6 7 5 4 7 5 8 6 6 7 7
17 21 13 7 5 5 6 7 10 14 13 9 11 9 8 8 9 10 13 14 15 11 9 4 7 10 5 3 4 6 7 7 6 5 5 6 5 4 4 3 5 6 8 8 5
16 11 18 18 8 6 4 4 5 5 6 8 10 12 12 11 9 8 7 7 7 8 7 6 4 4 4 5 5 5 5 6 5 5 5 7 6 7 5 6 5 4 4 6 10
12 12 16 16 14 14 11 8 3 4 3 4 4 4 4 4 5 5 5 4 4 4 4 4 4 4 4 4 4 4 5 5 5 5 5 5 5 7 4 5 4 5 8 11 12
4 6 8 19 14 8 19 20 12 10 7 3 3 3 3 3 3 3 3 2 2 3 3 4 4 3 2 4 4 4 4 4 4 5 6 5 8 3 6 8 13 13 12 9 7
5 5 6 3 10 16 11 14 20 19 12 11 12 9 7 7 6 4 5 5 5 5 4 5 4 4 4 5 4 6 8 8 9 9 8 12 12 13 10 9 7 8 8 8 6
Height
5611 5609 5611 5613 5616 5622 5631 5640 5653 5663 5674 5681 5691 5707 5726 5741 5755 5767 5777 5790 5799 5806 5813 5819 5826 5829 5834 5838 5841 5845 5851 5855 5859 5861 5863 5865 5867 5869 5870 5870 5870 5868 5867 5866 5865
5615 5613 5612 5614 5619 5623 5629 5637 5647 5657 5669 5670 5686 5702 5722 5738 5751 5762 5773 5785 5795 5803 5810 5816 5822 5827 5831 5835 5839 5843 5849 5854 5857 5858 5860 5862 5864 5866 5867 5866 5866 5865 5863 5862 5860
5620 5618 5618 5618 5621 5625 5631 5638 5646 5655 5661 5672 5683 5701 5719 5736 5749 5760 5770 5781 5792 5799 5807 5814 5819 5825 5829 5833 5838 5842 5847 5851 5854 5856 5858 5859 5861 5862 5863 5863 5862 5861 5859 5857 5855
5625 5623 5621 5623 5628 5635 5637 5639 5647 5654 5658 5673 5684 5699 5716 5734 5749 5758 5769 5779 5789 5797 5805 5812 5817 5823 5827 5831 5837 5840 5844 5848 5852 5854 5856 5857 5858 5858 5857 5860 5858 5856 5854 5853 5850
5628 5628 5626 5631 5634 5635 5641 5647 5648 5655 5665 5675 5685 5699 5716 5735 5749 5758 5768 5778 5787 5796 5803 5810 5815 5821 5825 5830 5834 5837 5841 5845 5849 5851 5853 5854 5855 5854 5852 5853 5853 5851 5850 5848 5846
5632 5632 5634 5641 5645 5647 5649 5648 5653 5660 5669 5681 5689 5702 5718 5737 5749 5759 5768 5777 5785 5794 5801 5808 5813 5818 5824 5828 5832 5836 5839 5843 5846 5848 5850 5851 5852 5850 5848 5847 5848 5847 5845 5843 5840
5642 5642 5646 5650 5652 5654 5655 5656 5661 5669 5676 5685 5694 5706 5721 5738 5750 5760 5768 5776 5785 5793 5799 5805 5811 5817 5822 5827 5831 5834 5838 5840 5843 5844 5845 5846 5847 5845 5843 5843 5843 5841 5839 5837 5834
5654 5652 5654 5656 5656 5658 5663 5665 5670 5676 5684 5692 5703 5713 5726 5740 5752 5761 5769 5777 5785 5793 5799 5805 5811 5817 5821 5826 5829 5832 5835 5837 5839 5840 5841 5842 5843 5840 5838 5838 5838 5834 5832 5829 5826
5665 5663 5663 5663 5663 5664 5668 5673 5679 5685 5693 5700 5710 5720 5732 5744 5755 5763 5771 5779 5786 5793 5799 5805 5810 5815 5820 5823 5827 5829 5832 5834 5835 5836 5837 5838 5839 5834 5833 5833 5830 5827 5824 5822 5818
5680 5678 5677 5675 5675 5676 5679 5684 5689 5695 5702 5708 5716 5727 5736 5748 5758 5766 5773 5780 5787 5793 5799 5805 5809 5814 5818 5821 5825 5827 5829 5831 5831 5833 5832 5832 5833 5829 5827 5825 5823 5820 5817 5814 5811
5693 5690 5687 5686 5686 5688 5691 5695 5701 5707 5710 5716 5723 5733 5743 5753 5762 5769 5776 5782 5788 5794 5799 5804 5809 5812 5816 5819 5822 5824 5826 5826 5827 5827 5827 5826 5825 5822 5819 5817 5816 5813 5810 5806 5803
5701 5699 5698 5696 5696 5697 5700 5704 5710 5715 5719 5723 5730 5738 5748 5756 5765 5772 5779 5784 5790 5795 5799 5804 5808 5811 5814 5817 5819 5820 5821 5822 5822 5821 5821 5819 5818 5816 5814 5811 5809 5806 5802 5799 5795
5709 5707 5706 5706 5706 5706 5708 5713 5718 5723 5727 5732 5737 5744 5753 5761 5767 5774 5780 5785 5790 5794 5799 5803 5806 5809 5811 5813 5815 5815 5816 5816 5817 5815 5814 5812 5812 5809 5807 5804 5801 5798 5795 5793 5790
5718 5716 5715 5715 5716 5717 5719 5722 5726 5730 5735 5739 5744 5750 5756 5763 5770 5775 5780 5786 5790 5794 5797 5800 5803 5806 5807 5808 5810 5811 5811 5810 5809 5808 5807 5806 5804 5803 5800 5797 5794 5791 5789 5787 5784
5727 5725 5725 5725 5723 5726 5729 5731 5734 5738 5742 5746 5750 5754 5759 5766 5772 5776 5780 5784 5788 5791 5795 5798 5799 5801 5803 5804 5805 5806 5805 5804 5803 5802 5800 5800 5797 5797 5793 5790 5788 5786 5784 5781 5779
5734 5734 5733 5733 5734 5734 5736 5739 5742 5746 5747 5750 5753 5757 5763 5767 5771 5775 5780 5784 5786 5789 5792 5794 5796 5798 5799 5799 5800 5800 5799 5798 5796 5795 5795 5793 5790 5790 5787 5785 5783 5781 5779 5777 5775
5740 5740 5739 5739 5740 5741 5742 5744 5747 5748 5752 5756 5758 5761 5764 5768 5772 5775 5779 5782 5785 5788 5789 5791 5792 5793 5794 5795 5794 5794 5793 5792 5791 5790 5788 5786 5784 5784 5782 5779 5778 5775 5774 5774 5772
5745 5744 5744 5744 5744 5745 5747 5749 5751 5752 5754 5758 5760 5763 5766 5769 5772 5775 5778 5780 5782 5784 5785 5787 5789 5789 5789 5789 5789 5788 5788 5786 5784 5784 5783 5780 5779 5779 5777 5775 5773 5771 5770 5770 5769
5749 5748 5748 5748 5748 5749 5751 5752 5753 5755 5758 5760 5762 5765 5767 5770 5773 5775 5776 5778 5780 5781 5783 5783 5784 5784 5784 5784 5784 5783 5782 5781 5778 5778 5777 5776 5775 5774 5773 5772 5771 5769 5767 5766 5765
5752 5751 5751 5750 5750 5751 5753 5753 5755 5757 5758 5761 5763 5765 5767 5769 5771 5772 5773 5775 5776 5777 5778 5779 5779 5779 5779 5779 5778 5777 5777 5776 5774 5772 5771 5771 5771 5770 5770 5768 5767 5765 5763 5761 5760
5753 5752 5752 5752 5752 5752 5753 5754 5755 5757 5758 5760 5762 5763 5765 5767 5768 5769 5771 5773 5773 5773 5774 5774 5775 5775 5774 5773 5772 5772 5771 5770 5769 5767 5765 5766 5768 5766 5765 5763 5761 5759 5757 5755 5753
5754 5753 5751 5752 5753 5753 5753 5754 5755 5756 5757 5759 5760 5762 5763 5764 5765 5766 5767 5768 5769 5769 5769 5769 5769 5769 5769 5769 5768 5768 5767 5765 5763 5764 5761 5760 5764 5760 5759 5757 5755 5753 5750 5748 5745
5753 5753 5752 5751 5752 5753 5754 5755 5755 5756 5756 5758 5759 5760 5760 5761 5762 5762 5763 5764 5764 5764 5765 5765 5765 5765 5765 5766 5764 5763 5762 5761 5759 5757 5757 5754 5757 5753 5751 5748 5746 5745 5742 5740 5736
5753 5753 5752 5752 5752 5752 5752 5753 5755 5756 5757 5757 5758 5759 5759 5760 5760 5761 5761 5761 5761 5761 5761 5761 5761 5761 5761 5760 5759 5758 5756 5755 5752 5751 5750 5749 5747 5745 5739 5738 5737 5735 5733 5730 5726
5754 5752 5752 5752 5752 5752 5752 5752 5752 5752 5753 5755 5757 5758 5758 5758 5759 5759 5759 5759 5758 5757 5757 5756 5756 5755 5754 5752 5752 5751 5750 5746 5745 5743 5739 5742 5737 5737 5729 5728 5726 5724 5721 5719 5716
5756 5755 5753 5752 5752 5751 5751 5751 5751 5750 5751 5751 5750 5751 5752 5754 5754 5754 5754 5754 5753 5752 5751 5750 5749 5747 5748 5743 5742 5744 5743 5737 5736 5733 5729 5727 5730 5718 5721 5716 5714 5711 5709 5707 5704
5757 5755 5754 5752 5751 5752 5750 5749 5748 5748 5748 5747 5747 5746 5746 5746 5745 5745 5745 5746 5746 5744 5743 5742 5739 5737 5739 5734 5731 5735 5733 5727 5724 5720 5717 5714 5715 5710 5707 5703 5700 5698 5696 5693 5690